Location: Unspecified
(0.0000°N, 0.0000°E)
Time: 17:55:04
(UTC+00:00)

STARLINK 1048 - Pass Details

Date: 17 January 2020
Orbit: 348 x 351 km, 53.0° (Epoch: 18 January)

Event Time Altitude Azimuth Distance (km) Brightness Sun altitude
Rises 05:24:59 0° 212° (SSW) 2,148 6.5 -10.5°
Reaches altitude 10° 05:27:00 10° 211° (SSW) 1,304 5.4 -10.0°
Maximum altitude 05:29:54 79° 125° (SE) 355 2.8 -9.3°
Drops below altitude 10° 05:32:47 10° 37° (NE) 1,295 5.7 -8.7°
Sets 05:34:46 0° 36° (NE) 2,133 6.8 -8.2°
